Weather History for Charlottesville, VA

Change the Weather History Date:

Wednesday, January 22, 2014

  Actual Average Record
Temperature  
Mean Temperature 17 °F 35 °F  
Max Temperature 23 °F 45 °F 77 °F (1927)
Min Temperature 10 °F 26 °F 0 °F (1985)
Degree Days  
Heating Degree Days 48 30  
Month to date heating degree days 700 660  
Since 1 July heating degree days 2365 2396  
Cooling Degree Days 0 0  
Month to date cooling degree days 0 0  
Year to date cooling degree days 0 0  
Moisture  
Dew Point -5 °F    
Average Humidity 51    
Maximum Humidity 77    
Minimum Humidity 25    
Precipitation  
Precipitation 0.00 in 0.09 in 1.56 in (1949)
Month to date precipitation 2.25 1.97  
Year to date precipitation 2.25 1.97  
Sea Level Pressure  
Sea Level Pressure 30.00 in    
Wind  
Wind Speed 6 mph (NNW)    
Max Wind Speed 15 mph    
Max Gust Speed 25 mph    
Visibility 10 miles    
Events      
T = Trace of Precipitation, MM = Missing Value Source: NWS Daily Summary

Daily Weather History Graph

Daily Weather History Graph

Search for Another Location

Airport:

Trip Planner

Search our weather history database for the weather conditions in past years. The results will help you decide how hot, cold, wet, or windy it might be!

Date:

Astronomy

Jan. 22, 2014 Rise Set
Actual Time 7:25 AM EST 5:25 PM EST
Civil Twilight 6:57 AM EST 5:53 PM EST
Nautical Twilight 6:25 AM EST 6:26 PM EST
Astronomical Twilight 5:53 AM EST 6:57 PM EST
Moon 11:49 PM EST (1/22) 10:32 AM EST (1/22)
Length of Visible Light 10h 56m
Length of Day
9h 59m
Waning Gibbous, 65% of the Moon is Illuminated
Jan 22
Waning Gibbous
Jan 24
Last Quarter
Jan 30
New
Feb 6
First Quarter
Feb 14
Full

Hourly Weather History & Observations

Time (EST) Temp. Windchill Dew Point Humidity Pressure Visibility Wind Dir Wind Speed Gust Speed Precip Events Conditions
12:53 AM 21.0 °F 11.4 °F 10.0 °F 63% 29.88 in 10.0 mi NNW 8.1 mph - N/A   Overcast
1:53 AM 18.0 °F 9.8 °F 5.0 °F 57% 29.90 in 10.0 mi Variable 5.8 mph - N/A   Clear
2:53 AM 16.0 °F 2.9 °F 3.0 °F 57% 29.92 in 10.0 mi North 11.5 mph 18.4 mph N/A   Overcast
3:53 AM 15.1 °F 2.5 °F 1.0 °F 54% 29.93 in 10.0 mi NNW 10.4 mph 18.4 mph N/A   Clear
4:53 AM 14.0 °F 2.9 °F -0.9 °F 52% 29.93 in 10.0 mi NNW 8.1 mph - N/A   Clear
5:53 AM 12.0 °F 0.5 °F -4.0 °F 49% 29.95 in 10.0 mi NNW 8.1 mph - N/A   Clear
6:53 AM 12.0 °F -4.5 °F -8.0 °F 41% 29.97 in 10.0 mi NNW 16.1 mph 25.3 mph N/A   Clear
7:53 AM 10.9 °F -0.8 °F -7.1 °F 44% 29.98 in 10.0 mi North 8.1 mph - N/A   Clear
8:53 AM 12.0 °F 2.7 °F -7.1 °F 42% 30.00 in 10.0 mi NNW 5.8 mph - N/A   Clear
9:53 AM 14.0 °F 2.9 °F -9.0 °F 35% 30.03 in 10.0 mi NNW 8.1 mph - N/A   Clear
10:53 AM 17.1 °F 6.6 °F -9.0 °F 31% 30.05 in 10.0 mi NNW 8.1 mph - N/A   Clear
11:53 AM 17.1 °F 6.6 °F -9.9 °F 30% 30.03 in 10.0 mi NNW 8.1 mph 17.3 mph N/A   Clear
12:53 PM 19.0 °F 9.0 °F -9.0 °F 29% 30.01 in 10.0 mi North 8.1 mph - N/A   Clear
1:53 PM 19.9 °F 7.9 °F -9.0 °F 27% 29.99 in 10.0 mi NNW 11.5 mph - N/A   Clear
2:53 PM 21.9 °F 15.7 °F -9.0 °F 25% 29.99 in 10.0 mi WNW 4.6 mph - N/A   Clear
3:41 PM 23.0 °F 11.7 °F -9.9 °F 23% 29.96 in 10.0 mi NNW 11.5 mph - N/A   Clear
3:53 PM 21.9 °F 10.4 °F -9.0 °F 25% 29.99 in 10.0 mi NNW 11.5 mph - N/A   Clear
4:53 PM 21.0 °F 16.2 °F -9.0 °F 26% 30.01 in 10.0 mi NW 3.5 mph - N/A   Clear
5:53 PM 18.0 °F - -7.1 °F 33% 30.04 in 10.0 mi Calm Calm - N/A   Clear
6:53 PM 17.1 °F 11.7 °F -7.1 °F 34% 30.04 in 10.0 mi NNE 3.5 mph - N/A   Clear
7:53 PM 18.0 °F - -5.1 °F 36% 30.04 in 10.0 mi Calm Calm - N/A   Overcast
8:53 PM 18.0 °F - -4.0 °F 38% 30.06 in 10.0 mi Calm Calm - N/A   Overcast
9:53 PM 17.1 °F - -0.9 °F 45% 30.07 in 10.0 mi Calm Calm - N/A   Overcast
10:53 PM 17.1 °F - -0.9 °F 45% 30.08 in 10.0 mi Calm Calm - N/A   Overcast
11:53 PM 15.1 °F - 3.0 °F 59% 30.08 in 10.0 mi Calm Calm - N/A   Overcast